Location: Kamms Corner
(44.7255°N, 108.9326°W)
Time: 00:16:07
(UTC+00:00)

N. Korean satellite - Visible Passes

Search period start: 21 January 2022 00:00
Search period end: 31 January 2022 00:00
Orbit: 446 x 491 km, 97.3° (Epoch: 20 January)

Date Brightness Start Highest point End Pass type
(mag) Time Alt. Az. Time Alt. Az. Time Alt. Az.
21 Jan 7.5 12:57:07 10° N 12:59:27 33° NNW 12:59:27 33° NNW visible
22 Jan 7.6 12:27:54 10° NNE 12:30:22 40° NNE 12:30:22 40° NNE visible
23 Jan 8.7 11:59:04 10° NNE 12:01:17 26° ENE 12:01:17 26° ENE visible
23 Jan 7.9 13:32:37 10° NNW 13:35:16 19° WNW 13:35:21 19° WNW visible
24 Jan 9.7 11:30:55 10° ENE 11:32:12 13° ENE 11:32:12 13° ENE visible
24 Jan 6.9 13:02:51 10° N 13:06:16 40° WNW 13:06:16 40° WNW visible
25 Jan 6.5 12:33:30 10° NNE 12:37:11 85° ESE 12:37:11 85° ESE visible
26 Jan 9.8 00:43:34 10° SW 00:45:31 14° W 00:47:30 10° WNW visible
26 Jan 8.1 12:04:32 10° NNE 12:07:55 35° E 12:08:06 35° ESE visible
26 Jan 8.1 13:38:24 10° NNW 13:40:48 17° WNW 13:42:10 14° W visible
27 Jan 9.5 11:36:09 10° NE 11:38:32 16° E 11:39:02 16° ESE visible
27 Jan 7.2 13:08:27 10° N 13:11:47 34° WNW 13:13:06 26° WSW visible
28 Jan 6.4 12:39:00 10° N 12:42:39 81° WNW 12:44:03 36° SSW visible
29 Jan 10.0 00:49:29 10° WSW 00:51:01 12° W 00:52:34 10° WNW visible
29 Jan 7.8 12:09:54 10° NNE 12:13:23 41° E 12:15:01 25° SSE visible
29 Jan 8.3 13:44:04 10° NNW 13:46:10 15° WNW 13:48:16 10° W visible
30 Jan 9.3 11:41:19 10° NE 11:43:58 19° E 11:46:03 12° SE visible
30 Jan 7.4 13:13:56 10° N 13:17:09 30° WNW 13:20:07 11° SW visible
